User: anonymous   Login
Location: Unspecified
(0.0000°N, 0.0000°E)
Time: 21:14:42
(UTC+00:00)
Language:

XW-2B - Orbit

View from above orbital plane
View from above orbital plane
View from above satellite
View from above satellite

Ground track
Ground track

The orbit data is extracted from the following two-line orbital elements,

1 40911U 15049N   22268.58204127  .00006100  00000-0  28069-3 0  9998
2 40911  97.4944 271.9110 0013222  15.3113 133.1541 15.20619885388067
Epoch (UTC): 25 September 2022 13:58:08
Eccentricity: 0.0013222
inclination: 97.4944°
perigee height: 495 km
apogee height: 513 km
right ascension of ascending node: 271.9110°
argument of perigee: 15.3113°
revolutions per day: 15.20619885
mean anomaly at epoch: 133.1541°
orbit number at epoch: 38806

The dashed part of the orbit path shows where the satellite is in the earth's shadow,  

DLR